Location: *
(28.2408°N, 53.4600°E)
Time: 16:21:24
(UTC+00:00)

CZ-3 Stage 3 - Pass Details

Date: 22 September 2019
Orbit: 238 x 16056 km, 30.8° (Epoch: 18 October)

Event Time Altitude Azimuth Distance (km) Brightness Sun altitude
Rises 14:54:30 0° 231° (SW) 6,053 7.4 -7.7°
Reaches altitude 10° 15:00:57 10° 220° (SW) 3,221 5.7 -9.1°
Maximum altitude 15:05:52 22° 172° (S) 1,314 3.1 -10.2°
Enters shadow 15:07:46 13° 124° (SE) 1,310 2.7 -10.6°
